Flag for U.S.A. Weather past 2 weeks in Portland, Maine, U.S.A.

Now
39 °F

Mostly cloudy.


Feels Like: 33 °F
Forecast: 31 / 40 °F
Wind: 8 mph from Northeast

Location: Portland - Portland International Jetport

Current Time: Dec 22, 2014 at 3:41:57 PM

Latest Report: Dec 22, 2014 at 2:51 PM


Visibility: 10 mi

Pressure: 30.38 "Hg

Humidity: 76%

Dew point: 32 °F

Location of PortlandLocation

Historic Weather in Portland — Graph

°F

Portland temperature yesterday

Maximum temperature yesterday: 34 °F (at 2:51 PM)
Minimum temperature yesterday: 22 °F (at 12:51 AM)
Average temperature yesterday: 28 °F

Past Weeks' High & Low Weather Summary

 TemperatureHumidityPressure
High46 °F (Dec 14, 1:51 PM)97% (Dec 11, 12:00 AM)30.85 "Hg (Dec 11, 12:00 AM)
Low11 °F (Dec 8, 4:51 AM)30% (Dec 7, 1:51 PM)29.45 "Hg (Dec 11, 12:00 AM)
Average33 °F78%30.01 "Hg
* Reported Dec 7 1:51 PM — Dec 22 1:51 PM, Portland, Weather by CustomWeather, © 2014

Note: Actual official high and low records may vary slightly from our data, if they occured in-between our weather recording intervals... More about our weather records

Advertising

Portland weather history for previous 24 hours

 ConditionsComfort  
Time TempWeatherWind HumidityBarometerVisibility
1:51 PM
Dec 22
40 °FOvercast.6 mph73%30.38 "Hg10 mi
12:51 PM40 °FPartly sunny.6 mph73%30.37 "Hg10 mi
11:51 AM38 °FPartly sunny.7 mph73%30.38 "Hg10 mi
10:51 AM36 °FPartly sunny.6 mph73%30.42 "Hg10 mi
9:51 AM35 °FPartly sunny.5 mph72%30.43 "Hg10 mi
8:51 AM33 °FPartly sunny.3 mph75%30.43 "Hg10 mi
7:51 AM32 °FPartly sunny.5 mph79%30.42 "Hg10 mi
6:51 AM31 °FPassing clouds.3 mph79%30.42 "Hg10 mi
5:51 AM31 °FOvercast.7 mph79%30.41 "Hg10 mi
4:51 AM31 °FOvercast.7 mph79%30.38 "Hg10 mi
3:51 AM31 °FOvercast.7 mph79%30.39 "Hg10 mi
2:51 AM31 °FOvercast.3 mph79%30.40 "Hg10 mi
1:51 AM31 °FOvercast.6 mph79%30.39 "Hg10 mi
12:51 AM31 °FOvercast.6 mph79%30.39 "Hg10 mi
11:51 PM
Dec 21
31 °FOvercast.6 mph76%30.39 "Hg10 mi
10:51 PM31 °FOvercast.5 mph79%30.39 "Hg10 mi
9:51 PM31 °FMostly cloudy.No wind76%30.38 "Hg10 mi
8:51 PM31 °FMostly cloudy.5 mph76%30.38 "Hg10 mi
7:51 PM31 °FMostly cloudy.3 mph76%30.37 "Hg10 mi
6:51 PM31 °FOvercast.5 mph76%30.37 "Hg10 mi
5:51 PM30 °FPassing clouds.5 mph75%30.35 "Hg10 mi
4:51 PM30 °FPassing clouds.6 mph75%30.34 "Hg10 mi
3:51 PM32 °FScattered clouds.5 mph73%30.34 "Hg10 mi
Weather by CustomWeather, © 2014

See weather overviewHow to use our weather pages